GW2016 Weather Reports


time (UTC)temp
C
wind
direction
speed
KPH
gust
KPH
rain 1hr
cm
rain 24hr
cm
rain mn
cm
humidity
%
barometer
mb
20260506044604 8 108 9.7 22.5 0.00 0.00 0.00 91 1010.1
20260506043105 8 125 8.0 22.5 0.00 0.00 0.00 91 1010.1
20260506042605 8 88 9.7 20.9 0.00 0.00 0.00 91 1010.0
20260506042105 8 115 6.4 16.1 0.00 0.00 0.00 91 1009.9
20260506041605 8 113 6.4 22.5 0.00 0.00 0.00 91 1010.0
20260506041105 8 112 9.7 24.1 0.00 0.00 0.00 90 1010.0
20260506040605 8 117 11.3 25.7 0.00 0.00 0.00 90 1010.1
20260506040105 8 147 9.7 25.7 0.00 0.00 0.00 90 1010.0
20260506035605 8 50 9.7 25.7 0.00 0.00 0.00 90 1009.9
20260506035104 8 102 8.0 19.3 0.00 0.00 0.00 90 1009.8
20260506034605 8 103 4.8 16.1 0.00 0.00 0.00 89 1009.8
20260506034105 9 65 6.4 20.9 0.00 0.00 0.00 89 1009.8
20260506033605 9 53 9.7 33.8 0.00 0.00 0.00 89 1010.1
20260506033105 9 6 8.0 25.7 0.00 0.00 0.00 89 1010.0
20260506032604 9 57 9.7 24.1 0.00 0.00 0.00 89 1010.0
20260506032104 9 105 12.9 32.2 0.00 0.00 0.00 89 1010.0
20260506031604 9 49 11.3 38.6 0.00 0.00 0.00 89 1010.0
20260506031105 9 41 9.7 38.6 0.00 0.00 0.00 89 1010.0
20260506030605 9 86 9.7 22.5 0.00 0.00 0.00 89 1009.9
20260506030105 9 10 8.0 29.0 0.00 0.00 0.00 88 1010.1
20260506025605 9 46 6.4 16.1 0.00 0.00 0.00 88 1010.2
20260506025105 9 48 8.0 27.4 0.00 0.00 0.00 88 1010.2
20260506024605 9 84 8.0 27.4 0.00 0.00 0.00 88 1010.1
20260506023605 9 56 11.3 35.4 0.00 0.00 0.00 87 1010.2
20260506023105 9 63 11.3 37.0 0.00 0.00 0.00 87 1010.3
20260506022604 9 38 6.4 20.9 0.00 0.00 0.00 87 1010.2
20260506022104 9 69 6.4 22.5 0.00 0.00 0.00 87 1010.4
20260506021604 9 53 8.0 24.1 0.00 0.00 0.00 87 1010.3
20260506021105 9 41 9.7 19.3 0.00 0.00 0.00 87 1010.2
20260506020104 10 60 9.7 32.2 0.00 0.00 0.00 87 1010.3
20260506015604 10 58 9.7 32.2 0.00 0.00 0.00 87 1010.4
20260506014604 10 40 11.3 24.1 0.00 0.00 0.00 87 1010.5
20260506014105 10 66 11.3 41.8 0.00 0.00 0.00 87 1010.5
20260506013604 10 38 12.9 32.2 0.00 0.00 0.00 88 1010.5
20260506013104 10 50 9.7 27.4 0.00 0.00 0.00 88 1010.5
20260506012105 10 16 14.5 40.2 0.00 0.00 0.00 89 1010.7
20260506011605 10 42 16.1 40.2 0.00 0.00 0.00 89 1010.5
20260506011105 10 73 8.0 25.7 0.00 0.00 0.00 89 1010.6
20260506010605 10 34 11.3 33.8 0.00 0.00 0.00 89 1010.6
20260506010104 10 27 14.5 35.4 0.00 0.00 0.00 89 1010.6
20260506005604 10 26 9.7 32.2 0.00 0.00 0.00 89 1010.8
20260506004604 10 28 12.9 38.6 0.00 0.00 0.00 89 1010.6
20260506004104 10 11 16.1 41.8 0.00 0.00 0.00 90 1010.5
20260506003605 10 37 9.7 33.8 0.00 0.00 0.00 90 1010.6
20260506003105 10 42 12.9 33.8 0.00 0.00 0.00 90 1010.7
20260506002605 10 36 14.5 35.4 0.00 0.00 0.00 90 1010.5
20260506002105 9 49 9.7 35.4 0.00 0.00 0.00 90 1010.8
20260506001604 9 35 12.9 35.4 0.00 0.00 0.00 90 1010.9
20260506001105 9 55 11.3 37.0 0.00 0.00 0.00 90 1010.8
20260506000105 9 35 16.1 49.9 0.00 0.00 0.00 90 1010.7
20260505235605 9 36 11.3 51.5 0.00 0.00 0.00 90 1010.8
20260505235104 9 33 11.3 40.2 0.00 0.00 0.00 89 1010.8
20260505234605 9 36 11.3 40.2 0.00 0.00 0.00 89 1010.5
20260505234106 9 38 11.3 33.8 0.00 0.00 0.00 89 1010.8
20260505233605 9 50 8.0 37.0 0.00 0.00 0.00 89 1010.8
20260505233104 9 43 12.9 37.0 0.00 0.00 0.00 89 1010.5
20260505232605 9 15 16.1 48.3 0.00 0.00 0.00 88 1010.6
20260505232105 9 33 14.5 51.5 0.00 0.00 0.00 88 1010.6
20260505231605 9 30 14.5 49.9 0.00 0.00 0.00 88 1010.5
20260505231106 9 18 14.5 49.9 0.00 0.00 0.00 88 1010.5
20260505230104 9 71 11.3 37.0 0.00 0.00 0.00 87 1010.8
20260505225605 9 22 19.3 48.3 0.00 0.00 0.00 87 1010.9
20260505225105 9 23 20.9 48.3 0.00 0.00 0.00 87 1010.6
20260505224605 9 23 14.5 35.4 0.00 0.00 0.00 87 1010.6
20260505224105 9 40 14.5 40.2 0.00 0.00 0.00 87 1010.9
20260505223104 9 36 17.7 40.2 0.00 0.00 0.00 87 1010.8
20260505222605 9 38 12.9 40.2 0.00 0.00 0.00 87 1010.8
20260505221605 9 19 14.5 38.6 0.00 0.00 0.00 87 1010.6
20260505221104 9 32 14.5 46.7 0.00 0.00 0.00 87 1010.7
20260505220604 9 34 19.3 41.8 0.00 0.00 0.00 87 1010.7
20260505215604 10 43 16.1 33.8 0.00 0.00 0.00 87 1010.8
20260505215104 10 36 11.3 40.2 0.00 0.00 0.00 87 1010.7
20260505214604 10 35 14.5 45.1 0.00 0.00 0.00 87 1010.6
20260505214105 10 21 17.7 37.0 0.00 0.00 0.00 87 1010.6
20260505211605 10 34 11.3 40.2 0.00 0.00 0.00 86 1010.6
20260505211104 10 24 16.1 48.3 0.00 0.00 0.00 85 1011.0
20260505210604 10 36 11.3 53.1 0.00 0.00 0.00 85 1010.8
20260505210104 10 22 17.7 41.8 0.00 0.00 0.00 85 1010.9
20260505205605 10 25 16.1 49.9 0.00 0.00 0.00 84 1010.9
20260505204604 10 26 19.3 49.9 0.00 0.00 0.00 84 1010.7
20260505204104 10 46 9.7 29.0 0.00 0.00 0.00 84 1010.9
20260505203604 10 20 16.1 37.0 0.00 0.00 0.00 84 1010.7
20260505202604 10 28 11.3 35.4 0.00 0.00 0.00 83 1010.7
20260505202104 10 35 16.1 37.0 0.00 0.00 0.00 82 1010.8
20260505201605 10 37 14.5 45.1 0.00 0.00 0.00 82 1010.7
20260505201105 10 31 12.9 29.0 0.00 0.00 0.00 82 1010.6
20260505200605 10 84 11.3 35.4 0.00 0.00 0.00 81 1010.6
20260505200104 10 36 14.5 38.6 0.00 0.00 0.00 81 1010.5
20260505195605 11 24 11.3 32.2 0.00 0.00 0.00 81 1010.2
20260505195105 11 43 11.3 32.2 0.00 0.00 0.00 80 1010.3
20260505194604 11 35 11.3 32.2 0.00 0.00 0.00 80 1010.2
20260505194104 11 28 11.3 38.6 0.00 0.00 0.00 79 1010.4
20260505193604 11 33 16.1 38.6 0.00 0.00 0.00 79 1010.3
20260505193104 11 35 12.9 38.6 0.00 0.00 0.00 78 1010.1
20260505192604 11 23 14.5 38.6 0.00 0.00 0.00 77 1010.1
20260505192105 11 60 11.3 32.2 0.00 0.00 0.00 76 1010.0
20260505191105 12 31 11.3 37.0 0.00 0.00 0.00 75 1010.0
20260505185604 12 39 8.0 35.4 0.00 0.00 0.00 74 1010.2
20260505185104 12 54 11.3 27.4 0.00 0.00 0.00 73 1010.1
20260505184604 12 19 14.5 37.0 0.00 0.00 0.00 73 1010.1
20260505183604 12 46 11.3 35.4 0.00 0.00 0.00 72 1010.0
20260505183105 12 32 11.3 27.4 0.00 0.00 0.00 72 1010.2
20260505182604 12 37 9.7 32.2 0.00 0.00 0.00 71 1010.2
20260505182104 12 72 9.7 40.2 0.00 0.00 0.00 71 1010.0
20260505181605 12 50 16.1 32.2 0.00 0.00 0.00 69 1010.0
20260505181104 12 53 12.9 37.0 0.00 0.00 0.00 69 1009.9
20260505180605 13 35 14.5 37.0 0.00 0.00 0.00 68 1010.1
20260505180104 13 53 16.1 40.2 0.00 0.00 0.00 67 1009.9
20260505175605 13 59 14.5 38.6 0.00 0.00 0.00 66 1010.0
20260505175104 13 41 16.1 40.2 0.00 0.00 0.00 65 1010.1
20260505174605 13 55 14.5 33.8 0.00 0.00 0.00 64 1010.0
20260505174105 13 67 14.5 45.1 0.00 0.00 0.00 65 1009.8
20260505173604 13 55 11.3 37.0 0.00 0.00 0.00 64 1010.0
20260505172604 13 42 19.3 37.0 0.00 0.00 0.00 63 1010.1
20260505172104 13 60 9.7 37.0 0.00 0.00 0.00 64 1009.9
20260505171604 13 47 9.7 25.7 0.00 0.00 0.00 64 1010.0
20260505171105 13 31 11.3 25.7 0.00 0.00 0.00 65 1010.1
20260505170105 13 59 9.7 35.4 0.00 0.00 0.00 63 1010.2
20260505165604 13 53 11.3 37.0 0.00 0.00 0.00 62 1010.2
20260505164604 13 54 11.3 41.8 0.00 0.00 0.00 63 1010.0
20260505164105 13 51 16.1 57.9 0.00 0.00 0.00 62 1010.0
20260505163604 14 39 14.5 57.9 0.00 0.00 0.00 62 1010.1
20260505163104 15 39 14.5 40.2 0.00 0.00 0.00 61 1010.3
20260505162604 14 46 19.3 41.8 0.00 0.00 0.00 61 1010.0
20260505162104 14 64 11.3 37.0 0.00 0.00 0.00 62 1010.0
20260505161604 14 68 11.3 37.0 0.00 0.00 0.00 63 1009.9
20260505160604 13 48 14.5 32.2 0.00 0.00 0.00 64 1010.3
20260505160104 13 59 12.9 37.0 0.00 0.00 0.00 64 1010.3
20260505153104 13 44 16.1 45.1 0.00 0.00 0.00 68 1010.2
20260505152604 13 42 20.9 38.6 0.00 0.00 0.00 68 1010.4
20260505152104 13 30 16.1 41.8 0.00 0.00 0.00 69 1010.4
20260505151605 13 16 12.9 37.0 0.00 0.00 0.00 71 1010.3
20260505151104 13 61 11.3 46.7 0.00 0.00 0.00 71 1010.5
20260505150605 13 66 12.9 29.0 0.00 0.00 0.00 71 1010.3
20260505150104 13 50 11.3 38.6 0.00 0.00 0.00 72 1010.4
20260505140604 15 46 19.3 51.5 0.00 0.00 0.00 66 1010.4
20260505140105 14 50 19.3 51.5 0.00 0.00 0.00 66 1010.4
20260505130104 13 60 14.5 45.1 0.00 0.00 0.00 67 1010.6
20260505124604 13 40 12.9 46.7 0.00 0.00 0.00 69 1010.5
20260505124105 13 29 16.1 53.1 0.00 0.00 0.00 69 1010.7
20260505123104 14 36 22.5 51.5 0.00 0.00 0.00 68 1010.8
20260505122604 13 53 17.7 48.3 0.00 0.00 0.00 68 1010.7
20260505122104 13 39 17.7 48.3 0.00 0.00 0.00 69 1010.6
20260505121604 14 24 16.1 49.9 0.00 0.00 0.00 68 1010.8
20260505121104 14 27 11.3 38.6 0.00 0.00 0.00 68 1010.9
20260505120604 14 20 16.1 38.6 0.00 0.00 0.00 70 1010.8
20260505120104 14 23 12.9 41.8 0.00 0.00 0.00 70 1010.8
20260505115604 13 79 9.7 35.4 0.00 0.00 0.00 72 1010.9
20260505114604 13 17 14.5 32.2 0.00 0.00 0.00 72 1010.7
20260505113604 13 36 16.1 45.1 0.00 0.00 0.00 72 1010.8
20260505113104 13 43 11.3 40.2 0.00 0.00 0.00 73 1010.8
20260505112105 13 23 14.5 35.4 0.00 0.00 0.00 74 1010.9
20260505111604 13 43 20.9 41.8 0.00 0.00 0.00 73 1011.0
20260505111104 13 29 19.3 46.7 0.00 0.00 0.00 73 1011.0
20260505110604 13 28 17.7 53.1 0.00 0.00 0.00 73 1010.9
20260505101604 13 48 12.9 41.8 0.00 0.00 0.00 75 1011.2
20260505101104 12 38 16.1 33.8 0.00 0.00 0.00 75 1011.2
20260505100604 12 12 14.5 35.4 0.00 0.00 0.00 76 1011.4
20260505100104 12 33 16.1 48.3 0.00 0.00 0.00 76 1011.3
20260505095604 12 49 16.1 48.3 0.00 0.00 0.00 75 1011.3
20260505095105 12 39 16.1 41.8 0.00 0.00 0.00 75 1011.2
20260505094603 12 22 19.3 46.7 0.00 0.00 0.00 75 1011.4
20260505094104 12 63 11.3 40.2 0.00 0.00 0.00 75 1011.4
20260505093604 12 33 19.3 49.9 0.00 0.00 0.00 75 1011.4
20260505093104 13 40 19.3 45.1 0.00 0.00 0.00 74 1011.3
20260505092604 12 37 14.5 33.8 0.00 0.00 0.00 75 1011.3
20260505092104 12 37 19.3 46.7 0.00 0.00 0.00 75 1011.5
20260505091604 12 57 16.1 35.4 0.00 0.00 0.00 75 1011.3
20260505091104 12 48 12.9 46.7 0.00 0.00 0.00 75 1011.3
20260505090604 12 29 16.1 40.2 0.00 0.00 0.00 76 1011.2
20260505090105 13 29 16.1 38.6 0.00 0.00 0.00 76 1011.5
20260505085604 12 31 11.3 29.0 0.00 0.00 0.00 77 1011.4
20260505085104 12 38 12.9 41.8 0.00 0.00 0.00 77 1011.4
20260505084604 12 32 14.5 35.4 0.00 0.00 0.00 76 1011.3
20260505084104 12 61 12.9 51.5 0.00 0.00 0.00 77 1011.5
20260505083604 12 42 11.3 49.9 0.00 0.00 0.00 78 1011.5
20260505083104 12 16 16.1 48.3 0.00 0.00 0.00 78 1011.4
20260505082605 12 68 9.7 46.7 0.00 0.00 0.00 79 1011.3
20260505082105 11 71 14.5 48.3 0.00 0.00 0.00 79 1011.5
20260505081604 11 30 16.1 41.8 0.00 0.00 0.00 80 1011.4
20260505081104 11 60 9.7 27.4 0.00 0.00 0.00 81 1011.3
20260505080604 11 55 11.3 32.2 0.00 0.00 0.00 81 1011.4
20260505075604 11 30 11.3 27.4 0.00 0.00 0.00 81 1011.4
20260505075104 11 25 19.3 53.1 0.00 0.00 0.00 81 1011.5
20260505074604 11 53 11.3 45.1 0.00 0.00 0.00 81 1011.5
20260505074104 11 22 12.9 46.7 0.00 0.00 0.00 82 1011.3
20260505073604 11 30 9.7 35.4 0.00 0.00 0.00 83 1011.4
20260505072604 11 25 16.1 46.7 0.00 0.00 0.00 82 1011.2
20260505072105 11 52 14.5 45.1 0.00 0.00 0.00 82 1011.4
20260505071604 11 85 8.0 25.7 0.00 0.00 0.00 82 1011.3
20260505071104 11 46 11.3 37.0 0.00 0.00 0.00 82 1011.2
20260505070604 11 65 12.9 41.8 0.00 0.00 0.00 83 1011.5
20260505070103 10 33 19.3 35.4 0.00 0.00 0.00 84 1011.5
20260505065604 10 35 11.3 27.4 0.00 0.00 0.00 84 1011.4
20260505065104 10 63 14.5 35.4 0.00 0.00 0.00 84 1011.5
20260505064604 11 81 14.5 35.4 0.00 0.00 0.00 84 1011.4
20260505062604 10 43 11.3 35.4 0.00 0.00 0.00 86 1011.5
20260505062103 10 21 9.7 35.4 0.00 0.00 0.00 86 1011.5
20260505061604 10 84 8.0 45.1 0.00 0.00 0.00 86 1011.4
20260505061104 10 62 14.5 53.1 0.00 0.00 0.00 86 1011.3
20260505060604 10 69 8.0 27.4 0.00 0.00 0.00 86 1011.3
20260505055604 10 77 9.7 32.2 0.00 0.00 0.00 86 1011.4
20260505054604 10 21 9.7 32.2 0.00 0.00 0.00 87 1011.4
20260505054104 10 51 9.7 37.0 0.00 0.00 0.00 87 1011.6
20260505053604 10 77 11.3 20.9 0.00 0.00 0.00 88 1011.7
20260505053104 10 38 8.0 27.4 0.00 0.00 0.00 88 1011.8
20260505052604 10 44 14.5 40.2 0.00 0.00 0.00 89 1012.1
20260505052104 10 17 16.1 37.0 0.00 0.00 0.00 90 1011.9
20260505051604 9 59 14.5 32.2 0.00 0.00 0.00 90 1011.9
20260505051104 10 38 14.5 33.8 0.00 0.00 0.00 90 1011.8
20260505050104 10 26 16.1 38.6 0.00 0.00 0.00 91 1011.9